CYPX

Puvirnituq Airport

Airport
ICAO code
CYPX
IATA Code
YPX
Summary
ICAO Region
NAM
ICAO Territory
Location

Puvirnituq, Quebec,

Serving
Puvirnituq
Elevation
74 ft
Coordinates
60° 3' 1" N , 77° 17' 12" W
KCC
Airport RE
Landing on Contaminated Runways
Metar
Observation
CYPX 270428Z AUTO 17009KT 5SM -SN SCT071 M34/M37 A2975 RMK SLP082
Station
Povungnituq
Date/Time
2023-01-27 05:28:00
Wind direction
170°
Wind speed
09 kts
Lowest cloud amount
scattered clouds
Temperature
-34°C
Dew point
-37°C
Humidity
73%
Weather condition
light snow

Description

Puvirnituq Airport, is located 1 NM north of Puvirnituq, Quebec, Canada.

Climatology

Subarctic climate (Köppen climate classification Dfc) - long, usually very cold winters, and short, cool to mild summers.

Runways

Designator Length Width Surface Rops
1/19 1528 30 GVL No/No

Airport map

Aerial View

SKYbrary Partners:

Safety knowledge contributed by: